This is the latest recevied weather packets stored in our database for station/object VA3WWD-2. If no packets are shown the sender has not sent any weather packets the latest 10 day(s).
| Time | Temp. | Humidity | Pressure | Rain* | Wind** | Luminosity | Snow |
|---|---|---|---|---|---|---|---|
| 1777606138 | 2.22° C | 61% | - | 0 mm | 0 m/s | - | - |
| 1777605840 | 2.78° C | 61% | - | 0 mm | 0 m/s | - | - |
| 1777605539 | 2.78° C | 60% | - | 0 mm | 0 m/s | - | - |
| 1777605241 | 2.78° C | 60% | - | 0 mm | 0 m/s | - | - |
| 1777604344 | 2.78° C | 54% | - | 0 mm | 0 m/s | - | - |
| 1777604046 | 3.33° C | 58% | - | 0 mm | 0 m/s | - | - |
| 1777603745 | 3.33° C | 58% | - | 0 mm | 0 m/s | - | - |
| 1777603447 | 3.33° C | 56% | - | 0 mm | 0 m/s | - | - |
| 1777603149 | 3.33° C | 56% | - | 0 mm | 0 m/s | - | - |
| 1777602848 | 3.89° C | 55% | - | 0 mm | 0 m/s | - | - |
| 1777602550 | 3.33° C | 53% | - | 0 mm | 0 m/s | - | - |
| 1777601952 | 3.89° C | 53% | - | 0 mm | 0 m/s | - | - |
| 1777601653 | 3.33° C | 52% | - | 0 mm | 0 m/s | - | - |
| 1777601356 | 3.89° C | 51% | - | 0 mm | 0 m/s | - | - |
| 1777601055 | 3.89° C | 51% | - | 0 mm | 0 m/s | - | - |
| 1777600757 | 4.44° C | 51% | - | 0 mm | 0 m/s | - | - |
| 1777599860 | 3.89° C | 50% | - | 0 mm | 0 m/s | - | - |
| 1777599562 | 3.89° C | 50% | - | 0 mm | 0 m/s | - | - |
| 1777599261 | 3.89° C | 50% | - | 0 mm | 0 m/s | - | - |
| 1777598064 | 4.44° C | 48% | - | 0 mm | 0 m/s | - | - |
| 1777597766 | 3.89° C | 49% | - | 0 mm | 0 m/s | - | - |
| 1777597465 | 4.44° C | 50% | - | 0 mm | 0 m/s | - | - |
| 1777597167 | 3.89° C | 50% | - | 0 mm | 0 m/s | - | - |
| 1777596869 | 4.44° C | 51% | - | 0 mm | 0 m/s | - | - |
| 1777596568 | 4.44° C | 51% | - | 0 mm | 0 m/s | - | - |
* Rain latest hour (hover to see other rain measurements)
** Current wind speed in m/s (hover to see current wind gust speed)